[[{"header":{"parameterUnit":"m.s-1","parameterCategory":1,"la1":30.2991,"la2":30.254,"lo1":-89.0895,"lo2":-89.0444,"dy":0.0017,"dx":0.0017,"nx":28,"ny":28,"refTime":"2025-08-21T21:00:00:Z","depth":0,"parameterNumber":2,"parameterNumberName":"U-component_of_WINDS"},"data":[0,0,0,0,0,0,0,0,0,0,0,0,0,0,0,0,0,0,0,0,0,0,0,0,0,0,0,0,0,0,0,0,0,0,0,0,0,0,0,0,0,0,0,0,0,0,0,0,0,0,0,0,0,0,0,0,0,0,1.4107,1.4108,0,1.4143,1.4143,1.4143,1.4145,1.4144,1.4144,1.4144,1.4176,1.4177,1.4179,0,0,0,0,0,0,0,0,0,0,0,0,0,1.4038,1.4039,1.4107,1.4108,1.4108,1.4142,1.4143,1.4143,1.4145,1.4144,1.4144,1.4144,1.4176,1.4177,1.4179,0,0,0,0,0,0,0,0,0,0,0,0,0,1.407,1.4039,1.4107,1.4113,1.4114,1.4142,1.4143,1.4144,1.4145,1.4144,1.4144,1.4143,1.4175,1.4177,1.4179,1.4202,0,0,1.4185,1.4185,0,0,0,0,0,0,0,0,1.4068,1.4072,1.4112,1.4113,1.4114,1.4139,1.413,1.4163,1.4145,1.4133,1.4144,1.4143,1.4164,1.4167,1.4175,1.4204,1.4205,1.4185,1.4186,1.4187,1.4187,0,0,0,0,0,0,0,1.4066,1.4071,1.4121,1.4112,1.4114,1.4113,1.4117,1.4136,1.4151,1.4134,1.4134,1.4139,1.4164,1.4173,1.4175,1.4206,1.4185,1.4186,1.4187,1.4188,1.4255,1.4255,0,0,0,0,0,0,1.4063,1.4069,1.412,1.4122,1.4089,1.4115,1.4119,1.4131,1.4151,1.4154,1.4139,1.4139,1.417,1.4173,1.4176,1.4204,1.4187,1.4188,1.4189,1.4254,1.4255,1.4256,0,0,0,0,0,0,1.4061,1.4067,1.4119,1.4096,1.4102,1.4116,1.413,1.4132,1.4141,1.4155,1.4157,1.4145,1.4169,1.4174,1.4196,1.4205,1.4189,1.4191,1.4253,1.4254,1.4255,1.4261,0,0,0,0,0,0,1.4059,1.4067,1.4077,1.4096,1.4103,1.4139,1.4131,1.4133,1.4144,1.4144,1.4161,1.4164,1.4169,1.4193,1.4198,1.4208,1.4192,1.4253,1.4254,1.4255,1.426,1.4262,1.4264,0,0,0,0,0,1.4057,1.4077,1.4077,1.4084,1.4116,1.4139,1.4143,1.4151,1.4145,1.4155,1.4164,1.4163,1.4204,1.4195,1.4201,1.4211,1.4252,1.4253,1.4255,1.4259,1.4261,1.4264,0,0,0,0,0,0,1.4057,1.4079,1.408,1.4107,1.4121,1.414,1.4152,1.4153,1.4168,1.4167,1.4175,1.4178,1.42,1.4208,1.4198,1.4234,1.4227,1.423,1.4228,1.4231,1.4233,1.423,1.4194,0,0,0,0,0,1.4061,1.4079,1.4096,1.4118,1.4125,1.4137,1.4148,1.4152,1.4167,1.4172,1.4183,1.4196,1.4212,1.4222,1.4237,1.4261,1.4264,1.4271,1.4273,1.4274,1.4276,1.4288,1.4291,1.426,1.426,1.426,0,0,1.4067,1.4082,1.4092,1.4119,1.413,1.4147,1.4142,1.4161,1.4173,1.4175,1.4196,1.4204,1.4219,1.4242,1.4253,1.425,1.4285,1.4276,1.4277,1.4278,1.429,1.4293,1.4295,1.4261,1.4261,1.4261,0,0,1.4088,1.4101,1.4121,1.4132,1.415,1.4158,1.4163,1.4181,1.4186,1.4209,1.421,1.4224,1.4251,1.4262,1.427,1.4295,1.4294,1.4299,1.4309,1.432,1.4323,1.4325,1.4332,1.4335,1.4301,1.4301,1.4301,0,1.4094,1.4121,1.413,1.4148,1.4159,1.4163,1.4181,1.4192,1.4213,1.422,1.4216,1.425,1.426,1.4285,1.4291,1.4299,1.4303,1.4297,1.4322,1.4324,1.4326,1.4333,1.4336,1.4302,1.4302,1.4302,1.4302,0,1.4126,1.4145,1.4158,1.418,1.4192,1.421,1.4221,1.4232,1.4235,1.4243,1.4264,1.4277,1.4295,1.4301,1.4304,1.4326,1.4323,1.4321,1.4313,1.4329,1.4336,1.4339,1.4302,1.4302,1.4302,1.4302,0,0,1.4148,1.4174,1.4179,1.4188,1.4208,1.4222,1.424,1.4258,1.4267,1.4282,1.4296,1.4319,1.4316,1.4326,1.4331,1.4341,1.4358,1.4337,1.4337,1.4339,1.4381,1.4382,1.4385,1.4358,1.4358,1.4359,1.4379,0,1.417,1.4203,1.4211,1.4239,1.4255,1.4259,1.4274,1.4287,1.4295,1.4309,1.4317,1.4332,1.4329,1.4335,1.4345,1.4353,1.4366,1.4352,1.4369,1.437,1.4365,1.4389,1.439,1.4409,1.4382,1.4383,1.4383,0,1.42,1.4216,1.4246,1.4263,1.427,1.4284,1.4301,1.4315,1.4329,1.4334,1.4345,1.4348,1.4365,1.4358,1.438,1.4371,1.4379,1.4384,1.4384,1.4385,1.4377,1.4389,1.4415,1.4417,1.4387,1.4387,1.4387,0,1.4211,1.424,1.4262,1.427,1.4291,1.43,1.4309,1.4323,1.4333,1.4347,1.4354,1.4369,1.4378,1.4389,1.4396,1.439,1.4418,1.4411,1.4421,1.4421,1.4426,1.4425,1.4452,1.4432,1.4432,1.4432,1.4432,0,1.4234,1.4252,1.4267,1.428,1.4299,1.4308,1.4326,1.4335,1.4347,1.4361,1.4365,1.4377,1.4386,1.4399,1.4404,1.4422,1.4426,1.4429,1.443,1.4428,1.4427,1.4432,1.4431,1.4433,1.4433,1.4433,1.4433,0,1.4249,1.4261,1.4284,1.4302,1.4307,1.432,1.4335,1.4347,1.4355,1.4372,1.4376,1.4388,1.4403,1.4412,1.4431,1.4434,1.4454,1.4454,1.4449,1.4449,1.4458,1.4457,1.4488,1.4492,1.4471,1.4471,1.4471,0,1.4263,1.4277,1.4297,1.4306,1.4316,1.4332,1.4342,1.4351,1.4362,1.4379,1.4388,1.4405,1.4418,1.4442,1.4452,1.4466,1.4467,1.4477,1.4469,1.4466,1.4465,1.4464,1.4465,1.4478,1.4478,1.4478,1.4478,0,1.4285,1.429,1.4306,1.4323,1.4336,1.435,1.4363,1.4371,1.4382,1.4393,1.441,1.442,1.444,1.4456,1.4471,1.4479,1.448,1.4481,1.4484,1.4481,1.4477,1.4478,1.4452,1.448,1.448,1.4479,1.4479,1.4479,1.4299,1.4311,1.4327,1.4344,1.4356,1.4368,1.438,1.439,1.4404,1.4422,1.4426,1.4443,1.4456,1.4477,1.4485,1.4498,1.4495,1.45,1.4501,1.4501,1.4501,1.4476,1.45,1.45,1.45,1.45,1.45,0,1.4321,1.4331,1.4347,1.4366,1.4379,1.4381,1.4396,1.4406,1.4422,1.4434,1.4448,1.4466,1.4481,1.4492,1.4507,1.4514,1.4515,1.4518,1.4517,1.4518,1.4503,1.4498,1.4517,1.4517,1.4517,1.4517,1.4517,1.4517,1.4334,1.4354,1.436,1.4385,1.4395,1.4413,1.4421,1.4432,1.4443,1.4463,1.4476,1.4484,1.4495,1.4511,1.4524,1.4527,1.4531,1.4534,1.4536,1.4521,1.452,1.4518,1.4514,1.4535,1.4535,1.4551,1.4551,1.4551]},{"header":{"parameterUnit":"m.s-1","parameterCategory":1,"la1":30.2991,"la2":30.254,"lo1":-89.0895,"lo2":-89.0444,"dy":0.0017,"dx":0.0017,"nx":28,"ny":28,"refTime":"2025-08-21T21:00:00:Z","depth":0,"parameterNumber":3,"parameterNumberName":"V-component_of_WINDS"},"data":[0,0,0,0,0,0,0,0,0,0,0,0,0,0,0,0,0,0,0,0,0,0,0,0,0,0,0,0,0,0,0,0,0,0,0,0,0,0,0,0,0,0,0,0,0,0,0,0,0,0,0,0,0,0,0,0,0,0,0.7429,0.7429,0,0.7491,0.7492,0.7492,0.7506,0.7505,0.7505,0.7504,0.7568,0.757,0.7572,0,0,0,0,0,0,0,0,0,0,0,0,0,0.7321,0.7323,0.7429,0.743,0.743,0.7491,0.7492,0.7493,0.7506,0.7505,0.7505,0.7504,0.7567,0.757,0.7572,0,0,0,0,0,0,0,0,0,0,0,0,0,0.7374,0.7323,0.7429,0.7444,0.7446,0.7491,0.7492,0.7493,0.7506,0.7505,0.7505,0.7504,0.7566,0.757,0.7573,0.7606,0,0,0.7582,0.7584,0,0,0,0,0,0,0,0,0.7371,0.7378,0.7441,0.7443,0.7446,0.749,0.7477,0.7531,0.7506,0.7483,0.7504,0.7504,0.7543,0.7548,0.7561,0.7609,0.7612,0.7583,0.7585,0.7586,0.7587,0,0,0,0,0,0,0,0.7367,0.7375,0.7453,0.7442,0.7445,0.7448,0.7455,0.7487,0.7516,0.7485,0.7486,0.7494,0.7544,0.7558,0.7562,0.7612,0.7583,0.7585,0.7587,0.7589,0.769,0.7691,0,0,0,0,0,0,0.7361,0.7372,0.7451,0.7455,0.7406,0.745,0.7458,0.7476,0.7516,0.7521,0.7494,0.7494,0.7553,0.7559,0.7565,0.7606,0.7586,0.7589,0.7591,0.7689,0.769,0.7691,0,0,0,0,0,0,0.7358,0.7368,0.7449,0.7414,0.7425,0.7453,0.7474,0.7478,0.7492,0.7522,0.7527,0.7503,0.7552,0.756,0.7595,0.7608,0.759,0.7593,0.7689,0.769,0.7691,0.7689,0,0,0,0,0,0,0.7355,0.7367,0.738,0.7414,0.7426,0.7479,0.7474,0.748,0.7498,0.7498,0.7532,0.7537,0.7552,0.7591,0.7599,0.7612,0.7596,0.7688,0.7689,0.769,0.7688,0.769,0.7692,0,0,0,0,0,0.7351,0.7377,0.7381,0.739,0.7443,0.748,0.7487,0.7503,0.7499,0.7512,0.7531,0.7536,0.7605,0.7594,0.7603,0.7618,0.7687,0.7689,0.769,0.7687,0.7689,0.7691,0,0,0,0,0,0,0.7344,0.7382,0.7386,0.7424,0.7448,0.7482,0.7499,0.7505,0.7532,0.7531,0.7551,0.7559,0.7592,0.7609,0.7595,0.7652,0.7646,0.765,0.764,0.7643,0.7645,0.764,0.7598,0,0,0,0,0,0.7346,0.7373,0.7404,0.7434,0.7447,0.7471,0.7487,0.7498,0.7524,0.7535,0.7557,0.7582,0.7609,0.7627,0.7654,0.769,0.7698,0.7705,0.7707,0.7708,0.7711,0.7731,0.7735,0.7697,0.7697,0.7697,0,0,0.7352,0.7376,0.7392,0.7433,0.7454,0.748,0.7479,0.7508,0.7528,0.7539,0.7574,0.759,0.762,0.7655,0.7672,0.767,0.7723,0.771,0.7711,0.7713,0.7733,0.7737,0.774,0.7698,0.7698,0.7698,0,0,0.7376,0.7397,0.7424,0.7445,0.7475,0.7491,0.7497,0.753,0.7542,0.7577,0.7586,0.7609,0.7656,0.7677,0.7693,0.7724,0.773,0.7732,0.7742,0.7761,0.7764,0.7767,0.7778,0.7781,0.7735,0.7735,0.7735,0,0.738,0.7421,0.7438,0.7465,0.7483,0.7495,0.7522,0.7541,0.7579,0.7591,0.7588,0.7646,0.7667,0.7707,0.7715,0.7728,0.7736,0.7729,0.7762,0.7765,0.7768,0.7779,0.7783,0.7735,0.7735,0.7735,0.7735,0,0.7423,0.7451,0.7469,0.7505,0.7525,0.7553,0.7574,0.7592,0.76,0.7616,0.7652,0.7676,0.7708,0.7719,0.7728,0.776,0.7758,0.7758,0.7753,0.7771,0.7782,0.7786,0.7735,0.7735,0.7735,0.7735,0,0,0.7445,0.749,0.7496,0.7512,0.7547,0.7569,0.7596,0.7627,0.7642,0.7668,0.7691,0.773,0.7731,0.7749,0.7761,0.7777,0.78,0.7776,0.7777,0.7779,0.7838,0.7837,0.7842,0.7804,0.7805,0.7805,0.7835,0,0.7474,0.7524,0.7539,0.7581,0.7607,0.7617,0.7641,0.7665,0.768,0.7704,0.7721,0.7748,0.7747,0.7758,0.7775,0.7794,0.7812,0.7792,0.7826,0.7827,0.7818,0.7847,0.7847,0.7874,0.7839,0.784,0.784,0,0.7514,0.754,0.7584,0.7614,0.7626,0.7647,0.7677,0.7699,0.7726,0.7736,0.7756,0.7766,0.7795,0.7787,0.7827,0.7813,0.7827,0.7839,0.784,0.7844,0.7835,0.7852,0.7883,0.7887,0.7847,0.7847,0.7846,0,0.7525,0.7571,0.7604,0.7617,0.7654,0.7668,0.7684,0.771,0.7727,0.7753,0.7765,0.7793,0.7809,0.7831,0.7848,0.784,0.7886,0.788,0.7895,0.7894,0.7904,0.7904,0.7938,0.7913,0.7913,0.7913,0.7913,0,0.7556,0.7582,0.7609,0.7629,0.7659,0.7677,0.7706,0.7722,0.7745,0.7768,0.7778,0.78,0.7821,0.7845,0.7858,0.7889,0.7896,0.7904,0.7908,0.7904,0.7903,0.7914,0.7913,0.7914,0.7914,0.7914,0.7914,0,0.7574,0.7593,0.7629,0.766,0.7669,0.7689,0.7716,0.7735,0.7751,0.778,0.7787,0.7812,0.784,0.7859,0.7896,0.7905,0.7939,0.7941,0.793,0.7931,0.7946,0.7944,0.7989,0.7996,0.7966,0.7966,0.7967,0,0.7592,0.7613,0.7646,0.7662,0.7678,0.7704,0.7722,0.774,0.7758,0.7789,0.7805,0.7834,0.7859,0.7904,0.7925,0.7952,0.7956,0.797,0.796,0.7955,0.7956,0.7955,0.7957,0.7972,0.7972,0.7972,0.7972,0,0.7623,0.7631,0.7656,0.7685,0.7706,0.7729,0.7752,0.7765,0.7786,0.7806,0.7836,0.7854,0.7892,0.7921,0.795,0.7966,0.7973,0.7975,0.798,0.7976,0.7969,0.7973,0.7934,0.7974,0.7974,0.7974,0.7973,0.7973,0.7642,0.766,0.7686,0.7714,0.7733,0.7755,0.7774,0.7792,0.7817,0.7849,0.7858,0.7888,0.7914,0.7954,0.7971,0.7995,0.7993,0.8,0.8002,0.8004,0.8004,0.7964,0.8,0.8,0.8,0.8,0.8,0,0.7673,0.769,0.7715,0.7747,0.7769,0.7773,0.7798,0.7816,0.7843,0.7866,0.789,0.7923,0.7951,0.7974,0.8003,0.8017,0.8021,0.8024,0.8024,0.8027,0.8004,0.7996,0.8021,0.8021,0.8021,0.8021,0.8021,0.8021,0.7691,0.7723,0.7734,0.7775,0.7792,0.7822,0.7837,0.7856,0.7875,0.7912,0.7935,0.7949,0.7972,0.8003,0.8028,0.8034,0.8044,0.8047,0.8053,0.8031,0.8029,0.8027,0.802,0.8049,0.8049,0.8075,0.8075,0.8075]}]]